• In Czech Republic
  • List of Countries
  • For 7 days
  • Water Temperature
  • Satellite Maps
  • Weather Map
  • Weather Widgets
  • user-avatar
    Login

    Hourly Weather Samroung

    Today, 16 December, Saturday

    Time Temperature Precipitation Wind Pressure Humidity
    00:00 +25°C° 0 mm 2 mps 757 mmHg 89%
    01:00 +25°C° 0 mm 2 mps 757 mmHg 91%
    02:00 +25°C° 0 mm 2 mps 757 mmHg 91%
    03:00 +25°C° 0 mm 2 mps 757 mmHg 91%
    04:00 +24°C° 0 mm 2 mps 757 mmHg 91%
    05:00 +24°C° 0 mm 3 mps 757 mmHg 91%
    06:00 +24°C° 0 mm 3 mps 757 mmHg 92%
    07:00 +24°C° 0 mm 3 mps 758 mmHg 92%
    08:00 +26°C° 0 mm 3 mps 758 mmHg 83%
    09:00 +28°C° 0 mm 4 mps 758 mmHg 73%
    10:00 +30°C° 0 mm 4 mps 759 mmHg 64%
    11:00 +32°C° 0 mm 4 mps 758 mmHg 60%
    12:00 +33°C° 0 mm 4 mps 758 mmHg 56%
    13:00 +34°C° 0 mm 4 mps 757 mmHg 52%
    14:00 +33°C° 0 mm 4 mps 757 mmHg 53%
    15:00 +33°C° 0 mm 4 mps 757 mmHg 54%
    16:00 +33°C° 0 mm 4 mps 756 mmHg 56%
    17:00 +30°C° 0 mm 4 mps 756 mmHg 62%
    18:00 +29°C° 0 mm 3 mps 757 mmHg 68%
    19:00 +27°C° 0 mm 3 mps 757 mmHg 74%
    20:00 +27°C° 0 mm 3 mps 758 mmHg 75%
    21:00 +26°C° 0 mm 3 mps 758 mmHg 76%
    22:00 +26°C° 0 mm 4 mps 759 mmHg 77%
    23:00 +26°C° 0 mm 4 mps 759 mmHg 75%

    Tomorrow, 17 December, Sunday

    Time Temperature Precipitation Wind Pressure Humidity
    00:00 +26°C° 0 mm 5 mps 759 mmHg 74%
    01:00 +26°C° 0 mm 6 mps 759 mmHg 73%
    02:00 +26°C° 0 mm 6 mps 758 mmHg 74%
    03:00 +24°C° 0 mm 6 mps 758 mmHg 75%
    04:00 +24°C° 0 mm 6 mps 758 mmHg 76%
    05:00 +24°C° 0 mm 7 mps 758 mmHg 76%
    06:00 +24°C° 0 mm 7 mps 759 mmHg 77%
    07:00 +24°C° 0 mm 7 mps 759 mmHg 77%
    08:00 +26°C° 0 mm 7 mps 760 mmHg 72%
    09:00 +28°C° 0 mm 7 mps 760 mmHg 67%
    10:00 +29°C° 0 mm 8 mps 760 mmHg 62%
    11:00 +30°C° 0 mm 7 mps 760 mmHg 60%
    12:00 +30°C° 0 mm 6 mps 759 mmHg 58%
    13:00 +32°C° 0 mm 6 mps 759 mmHg 55%
    14:00 +32°C° 0 mm 5 mps 758 mmHg 57%
    15:00 +30°C° 0 mm 5 mps 757 mmHg 59%
    16:00 +30°C° 0 mm 5 mps 757 mmHg 61%
    17:00 +28°C° 0 mm 5 mps 757 mmHg 67%
    18:00 +27°C° 0 mm 5 mps 758 mmHg 73%
    19:00 +25°C° 0 mm 5 mps 758 mmHg 79%
    20:00 +23°C° 0 mm 4 mps 759 mmHg 79%
    21:00 +23°C° 0 mm 4 mps 759 mmHg 79%
    22:00 +23°C° 0 mm 4 mps 760 mmHg 79%
    23:00 +22°C° 0 mm 4 mps 759 mmHg 78%

    Day after tomorrow, 18 December, Monday

    Time Temperature Precipitation Wind Pressure Humidity
    00:00 +22°C° 0 mm 4 mps 759 mmHg 78%
    01:00 +22°C° 0 mm 4 mps 759 mmHg 78%
    02:00 +22°C° 0 mm 5 mps 759 mmHg 78%
    03:00 +21°C° 0 mm 5 mps 759 mmHg 78%
    04:00 +21°C° 0 mm 5 mps 758 mmHg 78%
    05:00 +21°C° 0 mm 6 mps 759 mmHg 78%
    06:00 +21°C° 0 mm 6 mps 759 mmHg 77%
    07:00 +21°C° 0 mm 7 mps 759 mmHg 76%
    08:00 +23°C° 0 mm 7 mps 760 mmHg 69%
    09:00 +26°C° 0 mm 7 mps 760 mmHg 63%
    10:00 +27°C° 0 mm 8 mps 761 mmHg 56%
    11:00 +28°C° 0 mm 7 mps 760 mmHg 55%
    12:00 +29°C° 0 mm 7 mps 759 mmHg 53%
    13:00 +30°C° 0 mm 6 mps 758 mmHg 51%
    14:00 +29°C° 0 mm 6 mps 758 mmHg 53%
    15:00 +29°C° 0 mm 5 mps 757 mmHg 56%
    16:00 +29°C° 0 mm 5 mps 757 mmHg 58%
    17:00 +27°C° 0 mm 5 mps 757 mmHg 65%
    18:00 +25°C° 0 mm 5 mps 758 mmHg 72%
    19:00 +22°C° 0 mm 5 mps 758 mmHg 79%
    20:00 +22°C° 0 mm 4 mps 759 mmHg 79%
    21:00 +22°C° 0 mm 4 mps 759 mmHg 80%
    22:00 +21°C° 0 mm 4 mps 760 mmHg 80%
    23:00 +21°C° 0 mm 4 mps 759 mmHg 80%

    19 December, Tuesday

    Time Temperature Precipitation Wind Pressure Humidity
    00:00 +21°C° 0 mm 4 mps 759 mmHg 79%
    01:00 +21°C° 0 mm 4 mps 759 mmHg 78%
    02:00 +21°C° 0 mm 5 mps 758 mmHg 79%
    03:00 +21°C° 0 mm 5 mps 758 mmHg 79%
    04:00 +21°C° 0 mm 6 mps 758 mmHg 79%
    05:00 +21°C° 0 mm 6 mps 758 mmHg 79%
    06:00 +21°C° 0 mm 7 mps 759 mmHg 78%
    07:00 +20°C° 0 mm 7 mps 759 mmHg 77%
    08:00 +22°C° 0 mm 7 mps 760 mmHg 71%
    09:00 +24°C° 0 mm 7 mps 760 mmHg 65%
    10:00 +27°C° 0 mm 7 mps 760 mmHg 60%
    11:00 +28°C° 0 mm 6 mps 760 mmHg 57%
    12:00 +29°C° 0 mm 5 mps 759 mmHg 54%
    13:00 +30°C° 0 mm 5 mps 758 mmHg 52%
    14:00 +30°C° 0 mm 4 mps 758 mmHg 53%
    15:00 +29°C° 0 mm 4 mps 757 mmHg 55%
    16:00 +29°C° 0 mm 3 mps 757 mmHg 56%
    17:00 +27°C° 0 mm 3 mps 757 mmHg 63%
    18:00 +25°C° 0 mm 4 mps 758 mmHg 69%
    19:00 +22°C° 0 mm 4 mps 759 mmHg 76%
    20:00 +22°C° 0 mm 3 mps 759 mmHg 75%
    21:00 +21°C° 0 mm 3 mps 759 mmHg 74%
    22:00 +21°C° 0 mm 3 mps 760 mmHg 73%
    23:00 +21°C° 0 mm 4 mps 759 mmHg 74%

    20 December, Wednesday

    Time Temperature Precipitation Wind Pressure Humidity
    00:00 +21°C° 0 mm 4 mps 759 mmHg 75%
    01:00 +20°C° 0 mm 4 mps 759 mmHg 75%
    02:00 +20°C° 0 mm 5 mps 759 mmHg 74%
    03:00 +20°C° 0 mm 5 mps 759 mmHg 74%
    04:00 +19°C° 0 mm 6 mps 759 mmHg 73%
    05:00 +19°C° 0 mm 6 mps 759 mmHg 73%
    06:00 +19°C° 0 mm 6 mps 759 mmHg 73%
    07:00 +19°C° 0 mm 6 mps 760 mmHg 73%
    08:00 +21°C° 0 mm 6 mps 760 mmHg 67%
    09:00 +23°C° 0 mm 6 mps 760 mmHg 62%
    10:00 +24°C° 0 mm 6 mps 761 mmHg 56%
    11:00 +27°C° 0 mm 6 mps 760 mmHg 53%
    12:00 +28°C° 0 mm 6 mps 759 mmHg 51%
    13:00 +29°C° 0 mm 5 mps 758 mmHg 48%
    14:00 +29°C° 0 mm 5 mps 758 mmHg 50%
    15:00 +28°C° 0 mm 5 mps 757 mmHg 52%
    16:00 +27°C° 0 mm 5 mps 757 mmHg 55%
    17:00 +26°C° 0 mm 5 mps 758 mmHg 59%
    18:00 +23°C° 0 mm 5 mps 758 mmHg 64%
    19:00 +21°C° 0 mm 5 mps 759 mmHg 69%
    20:00 +21°C° 0 mm 5 mps 759 mmHg 67%
    21:00 +21°C° 0 mm 5 mps 759 mmHg 66%
    22:00 +21°C° 0 mm 4 mps 759 mmHg 64%
    23:00 +21°C° 0 mm 4 mps 759 mmHg 65%

    21 December, Thursday

    Time Temperature Precipitation Wind Pressure Humidity
    00:00 +21°C° 0 mm 4 mps 759 mmHg 66%
    01:00 +21°C° 0 mm 4 mps 758 mmHg 67%
    02:00 +20°C° 0 mm 4 mps 758 mmHg 68%
    03:00 +20°C° 0 mm 5 mps 758 mmHg 68%
    04:00 +20°C° 0 mm 5 mps 758 mmHg 69%
    05:00 +20°C° 0 mm 5 mps 758 mmHg 69%
    06:00 +20°C° 0 mm 6 mps 758 mmHg 69%
    07:00 +19°C° 0 mm 6 mps 759 mmHg 68%
    08:00 +21°C° 0 mm 6 mps 759 mmHg 63%
    09:00 +23°C° 0 mm 7 mps 759 mmHg 58%
    10:00 +26°C° 0 mm 7 mps 760 mmHg 53%
    11:00 +27°C° 0 mm 6 mps 759 mmHg 52%
    12:00 +28°C° 0 mm 6 mps 758 mmHg 51%
    13:00 +29°C° 0 mm 5 mps 757 mmHg 49%
    14:00 +28°C° 0 mm 5 mps 757 mmHg 52%
    15:00 +27°C° 0 mm 5 mps 756 mmHg 55%
    16:00 +27°C° 0 mm 5 mps 756 mmHg 58%
    17:00 +25°C° 0 mm 5 mps 756 mmHg 62%
    18:00 +23°C° 0 mm 4 mps 757 mmHg 66%
    19:00 +22°C° 0 mm 4 mps 757 mmHg 70%
    20:00 +22°C° 0 mm 3 mps 757 mmHg 69%
    21:00 +22°C° 0 mm 3 mps 757 mmHg 67%
    22:00 +24°C° 0 mm 3 mps 757 mmHg 66%
    23:00 +22°C° 0 mm 3 mps 757 mmHg 67%
    Show more